Home > Weather > Ciudad Ojeda > Past weeks

Flag for Venezuela Past Weather in Ciudad Ojeda, Venezuela — Yesterday and Last 2 Weeks

Now
84 °F

Passing clouds.


Feels Like: 92 °F
Forecast: 80 / 92 °F
Wind: 12 mph from Northeast

Location: Maracaibo-La Chinita

Current Time: Jul 25, 2016 at 6:02:38 AM

Latest Report: Jul 24, 2016 at 11:00 PM


Visibility: N/A

Pressure: 29.86 "Hg

Humidity: 74%

Dew Point: 75 °F

Location of Ciudad OjedaLocation

Past Weather in Ciudad Ojeda — Graph

°F

Ciudad Ojeda Temperature Yesterday

Maximum temperature yesterday: 91 °F (at 4:00 PM)
Minimum temperature yesterday: 79 °F (at 7:00 AM)
Average temperature yesterday: 86 °F

High & Low Weather Summary for the Past Weeks

 TemperatureHumidityPressure
High97 °F (Jul 11, 1:00 PM)100% (Jul 15, 7:00 PM)29.98 "Hg (Jul 15, 7:00 PM)
Low77 °F (Jul 16, 6:00 AM)53% (Jul 13, 2:00 PM)29.83 "Hg (Jul 11, 5:00 PM)
Average87 °F73%29.89 "Hg
* Reported Jul 9 11:00 PM — Jul 24 11:00 PM, Ciudad Ojeda, Weather by CustomWeather, © 2016

Note: Actual official high and low records may vary slightly from our data, if they occured in-between our weather recording intervals... More about our weather records

Advertising

Ciudad Ojeda Weather History for the Previous 24 Hours

Scroll right to see more
 ConditionsComfort  
Time TempWeatherWind HumidityBarometerVisibility
11:00 PM
Sun, Jul 24
84 °FPassing clouds.12 mph74%29.86 "HgN/A
10:00 PM84 °FPassing clouds.14 mph70%29.86 "HgN/A
9:00 PM86 °FPassing clouds.6 mph75%29.86 "HgN/A
8:00 PM84 °FPassing clouds.7 mph70%29.83 "HgN/A
7:00 PM88 °FPassing clouds.9 mph79%29.83 "HgN/A
6:00 PM88 °FScattered clouds.14 mph62%29.83 "HgN/A
5:00 PM88 °FPartly sunny.13 mph66%29.83 "HgN/A
4:00 PM91 °FPartly sunny.6 mph67%29.83 "HgN/A
3:00 PM90 °FPartly sunny.6 mph75%29.86 "HgN/A
2:00 PM88 °FPartly sunny.3 mph70%29.89 "HgN/A
1:00 PM90 °FPartly sunny.3 mph59%29.92 "HgN/A
12:00 PM90 °FOvercast.3 mph79%29.92 "HgN/A
11:00 AM90 °FPartly sunny.3 mph75%29.92 "HgN/A
10:00 AM88 °FPartly sunny.7 mph70%29.92 "HgN/A
9:00 AM86 °FPartly sunny.10 mph70%29.89 "HgN/A
8:00 AM81 °FScattered clouds.3 mph84%29.89 "HgN/A
7:00 AM79 °FPartly sunny.3 mph89%29.89 "HgN/A
6:00 AM81 °FPassing clouds.3 mph84%29.89 "HgN/A
Weather by CustomWeather, © 2016

See weather overviewHow to use our weather pages